Regional Weather Roundup
Issued by NWS

Home | Current Version | Previous Version | Graphics & Text | Print | Product List | Glossary On
Versions: 1 2 3 4 5 6 7 8 9 10 11 12 13 14 15 16 17 18 19 20 21 22 23 24 25 26 27 28 29 30 31 32 33 34 35 36 37 38 39 40 41 42 43 44 45 46 47 48 49 50
000
ASUS45 KBOU 290907
RWRCO

WEATHER ROUNDUP FOR COLORADO
NATIONAL WEATHER SERVICE DENVER/BOULDER CO
200 AM MST MON DEC 29 2014

NOTE: "FAIR" INDICATES FEW OR NO CLOUDS BELOW 12000 FEET WITH NO
SIGNIFICANT WEATHER AND/OR OBSTRUCTIONS TO VISIBILITY.

COZ001>005-013-030-031-291000-
...NORTHWEST COLORADO...

CITY           SKY/WX    TMP DP  RH WIND       PRES   REMARKS
CRAIG            N/A     15  13  91 MISG      29.97R
HAYDEN         MOCLDY    16  12  86 CALM      29.94S
MEEKER         LGT SNOW  20  16  84 CALM      29.95R FOG
MOUNT WERNER   NOT AVBL
STEAMBOAT SPGS CLOUDY    16  13  90 CALM      29.94R
WALDEN         CLOUDY     1  -2  85 E5        29.88S WCI  -8
$$

COZ006>008-011-291000-
...WEST CENTRAL VALLEYS...

CITY           SKY/WX    TMP DP  RH WIND       PRES   REMARKS
GRAND JUNCTION LGT SNOW  22  21  96 CALM      30.00S FOG
MONTROSE       CLOUDY    18  13  80 CALM      30.00R
EAGLE          MOCLDY    18  16  93 CALM      29.98R
RIFLE          LGT SNOW  20  17  88 NE3       29.99S FOG
DELTA          CLOUDY    23  14  70 NE5       30.00S WCI  16
NUCLA          CLOUDY    23  14  68 N3        30.00S
$$

COZ017>023-064>068-291000-
...SOUTHWEST COLORADO...

CITY           SKY/WX    TMP DP  RH WIND       PRES   REMARKS
DURANGO        PTCLDY     2  -2  83 N3        30.00S
CORTEZ         CLEAR      6   2  83 E3        30.00F
PAGOSA SPRINGS PTCLDY   N/A N/A N/A CALM      29.98R
TELLURIDE      NOT AVBL
WOLF CREEK PAS CLOUDY     3   0  85 MISG      29.84S FOG
$$

COZ009-010-012-014-032>034-037-058>063-291000-
...CENTRAL COLORADO...

CITY           SKY/WX    TMP DP  RH WIND       PRES   REMARKS
ASPEN          LGT SNOW  14  11  87 CALM      29.89S FOG
BUENA VISTA    CLOUDY    13   7  78 W3        29.88R
COPPER MTN     LGT SNOW   5   0  78 W15       29.77R WCI -13
BERTHOUD PASS  NOT AVBL
COTTONWOOD PAS LGT SNOW  18  12  79 CALM      29.82R
GUNNISON       PTCLDY     1 -20  35 CALM      29.95F
KREMMLING      CLOUDY    10   7  85 CALM      29.93R
LEADVILLE      LGT SNOW   8   4  83 N7        29.81R FOG     WCI  -3
MONARCH PASS   CLOUDY     5   1  85 MISG      29.87S
SALIDA         CLOUDY    20   7  56 SW16      29.96R WCI   6
SUNLIGHT       LGT SNOW N/A N/A N/A CALM      29.84S
WILKERSON PASS CLOUDY     7   3  85 SW9       29.82R WCI  -7
$$

COZ069>075-291000-
...SAN LUIS VALLEY/SANGRE DE CRISTO MOUNTAINS...

CITY           SKY/WX    TMP DP  RH WIND       PRES   REMARKS
ALAMOSA        PTCLDY    -4  -8  83 N3        29.94F
LA VETA PASS   NOT AVBL
SAGUACHE       MOCLDY     1  -2  85 CALM      29.96R
$$

COZ035-036-038>040-291000-
...NORTHERN COLORADO FRONT RANGE...

CITY           SKY/WX    TMP DP  RH WIND       PRES   REMARKS
DENVER INTL AP MOCLDY    14   9  80 N7        29.96R WCI   4
DMNS CITY PARK   N/A     16   9  76 E1        29.98R
AURORA         MOCLDY    17  11  80 N2        29.96R
FRONT RANGE AP CLOUDY    18  12  79 NW3       29.97R
ERIE MUNI ARPT   N/A      6   4  90 MISG      29.99R
BOULDER MUN AP PTCLDY    14   9  79 CALM      29.97S
CENTENNIAL     CLOUDY    16  10  77 CALM      29.93R
BROOMFIELD     CLOUDY    19  10  68 N7        29.96R WCI  10
FORT COLLINS   PTCLDY    19  10  68 NE6       29.99R WCI  11
LONGMONT       PTCLDY     6   2  85 CALM      30.00S
$$

COZ041-046-047-076>085-087-088-291000-
...PIKES PEAK/PALMER DIVIDE AND SOUTHERN FOOTHILLS...

CITY           SKY/WX    TMP DP  RH WIND       PRES   REMARKS
COLO. SPRINGS  CLEAR     14   5  67 N7        29.93R WCI   4
A. F. ACADEMY  PTCLDY    12   4  69 N9        29.91R WCI   0
ELLICOTT       NOT AVBL
FALCON         CLEAR     12   5  74 N5        29.92R WCI   4
FORT CARSON    CLEAR     16   8  70 NW8       29.91R WCI   6
LIMON          CLEAR      5   1  83 CALM      29.96R
MONUMENT HILL  MOCLDY    10   1  67 CALM      29.90R
TRINIDAD       PTCLDY    15   6  67 W12       29.93S WCI   2
$$

COZ042>045-048>051-090-091-291000-
...NORTHEAST COLORADO...

CITY           SKY/WX    TMP DP  RH WIND       PRES   REMARKS
GREELEY ARPT   MOCLDY     1  -6  71 W3        29.99R
AKRON          PTCLDY    13  10  88 W7        29.98R FOG     WCI   3
BURLINGTON     PTCLDY    13   9  84 W5        29.99R WCI   5
WRAY           PTCLDY     6   4  89 NW5       30.05R WCI  -3
STERLING       MOCLDY    12  10  92 S5        30.01R WCI   4
HOLYOKE        PTCLDY     3   0  85 CALM      30.03S
FORT MORGAN    MOCLDY    17   9  71 NW7       30.00R WCI   7
$$

COZ086-089-092>099-291000-
...SOUTHEAST COLORADO...

CITY           SKY/WX    TMP DP  RH WIND       PRES   REMARKS
PUEBLO         CLEAR     11   5  77 CALM      29.95R
LA JUNTA       CLEAR     21  14  74 CALM      29.98R
LAMAR          CLEAR     11   8  88 SW7       29.98R WCI   0
SPRINGFIELD      N/A     19  12  74 NW12      29.94R WCI   7
$$


USA.gov is the U.S. government's official web portal to all federal, state and local government web resources and services.